Location: Columbia
(38.9520°N, 92.3340°W)
Time: 23:22:51
(UTC-05:00)

Cosmos 1603 - Visible Passes

Search period start: 19 October 2014 00:00
Search period end: 29 October 2014 00:00
Orbit: 830 x 861 km, 71.0° (Epoch: 19 October)

Date Brightness Start Highest point End Pass type
(mag) Time Alt. Az. Time Alt. Az. Time Alt. Az.
19 Oct 6.7 05:56:57 10° NE 05:57:45 10° NE 05:58:34 10° NE visible
22 Oct 4.4 06:55:57 10° NNW 07:01:36 59° ENE 07:07:10 10° SE visible
23 Oct 4.4 06:42:09 10° NNW 06:47:47 57° ENE 06:53:20 10° SE visible
24 Oct 4.5 06:28:21 10° NNW 06:33:58 56° ENE 06:39:30 10° SE visible
24 Oct 5.5 19:37:04 10° SE 19:38:07 13° SE 19:38:07 13° SE visible
24 Oct 5.8 21:18:48 10° SW 21:20:08 18° SW 21:20:08 18° SW visible
25 Oct 4.5 06:14:32 10° NNW 06:20:08 54° ENE 06:25:39 10° SE visible
25 Oct 5.1 19:23:22 10° SE 19:26:21 17° ESE 19:26:21 17° ESE visible
25 Oct 4.9 21:04:57 10° SW 21:08:22 36° SW 21:08:22 36° SW visible
26 Oct 4.5 06:00:44 10° NNW 06:06:19 52° ENE 06:11:48 10° SE visible
26 Oct 5.1 19:09:40 10° SE 19:13:15 17° E 19:14:33 16° E visible
26 Oct 4.1 20:51:07 10° SW 20:56:33 61° WNW 20:56:33 61° WNW visible
27 Oct 4.5 05:46:56 10° NNW 05:52:29 51° ENE 05:57:57 10° SE visible
27 Oct 5.1 18:55:59 10° SE 18:59:27 17° E 19:02:37 11° ENE visible
27 Oct 4.0 20:37:17 10° SSW 20:42:57 64° WNW 20:44:37 45° N visible
28 Oct 4.6 05:33:07 10° NNW 05:38:39 49° ENE 05:44:06 10° SE visible
28 Oct 5.2 18:42:18 10° SE 18:45:39 16° E 18:49:01 10° ENE visible
28 Oct 4.0 20:23:27 10° SSW 20:29:08 66° WNW 20:32:30 25° N visible
28 Oct 6.6 22:13:17 10° WNW 22:14:25 11° NW 22:14:29 11° NW visible
